Regional Weather Roundup
Issued by NWS

Home | Current Version | Previous Version | Graphics & Text | Print | Product List | Glossary On
Versions: 1 2 3 4 5 6 7 8 9 10 11 12 13 14 15 16 17 18 19 20 21 22 23 24 25 26 27 28 29 30 31 32 33 34 35 36 37 38 39 40 41 42 43 44 45 46 47 48 49 50
967
ASUS44 KJAN 191010
RWRMS

MISSISSIPPI HOURLY WEATHER ROUNDUP
NATIONAL WEATHER SERVICE JACKSON MS
500 AM CDT SUN APR 19 2015

NOTE: "FAIR: INDICATES FEW OR NO CLOUDS BELOW 12,000 FEET WITH NO
SIGNIFICANT WEATHER AND/OR OBSTRUCTIONS TO VISIBILITY.

MSZ001>002-007>008-010>013-018>021-025>028-034>036-191100-
NORTHWEST MISSISSIPPI

CITY           SKY/WX    TMP DP  RH WIND       PRES   REMARKS
CLARKSDALE     CLOUDY    66  66 100 S10       29.68F
CLEVELAND      CLOUDY    67  67 100 SW12      29.69F
GREENWOOD      LGT RAIN  66  63  90 S10       29.71S
GREENVILLE     CLOUDY    67  65  93 SW12      29.69F
OLIVE BRANCH   CLOUDY    63 N/A N/A S7        29.69F
OXFORD         CLOUDY    63  63 100 S9        29.71F
TUNICA         RAIN      64  63  94 SE5       29.69S
$$

MSZ003>006-009-014>017-022>024-029>033-037>039-191100-
NORTHEAST MISSISSIPPI

CITY           SKY/WX    TMP DP  RH WIND       PRES   REMARKS
COLUMBUS AFB   CLOUDY    64  64 100 SW8       29.71S
CORINTH        LGT RAIN  66  64  94 SE6       29.69F
GOLDN TRIANGLE CLOUDY    64  63  94 SW7       29.73R
STARKVILLE     CLOUDY    63  63 100 S5        29.74R
TUPELO         CLOUDY    65  63  93 SW3       29.69F
$$

MSZ040-058-191100-
CENTRAL MISSISSIPPI

CITY           SKY/WX    TMP DP  RH WIND       PRES   REMARKS
JACKSON INTL   CLOUDY    67  65  93 S8        29.75S THUNDER
JACKSON HAWKNS CLOUDY    67  65  93 S10       29.75S THUNDER
MERIDIAN KEY   HVY RAIN  65  64  97 VRB3      29.77R FOG
MERIDIAN NAS   HVY RAIN  65  63  93 W6        29.76F VSB 1
RAYMOND        PTSUNNY   66  63  88 S7        29.74S
VICKSBURG      TSTM      65  62  90 SW12G23   29.75R FOG
$$

MSZ059>079-191100-
SOUTH MISSISSIPPI

CITY           SKY/WX    TMP DP  RH WIND       PRES   REMARKS
BROOKHAVEN     CLOUDY    70  70 100 S10       29.80R
HATTIESBURG    MOCLDY    70  67  90 SW7       29.79S
MCCOMB         CLOUDY    69  68  96 SW8       29.79R
NATCHEZ        CLOUDY    70  66  88 SW9       29.76F
PINE BELT      CLOUDY    68 N/A N/A SW7       29.79R
$$

MSZ080>082-191100-
COASTAL MISSISSIPPI

CITY           SKY/WX    TMP DP  RH WIND       PRES   REMARKS
BILOXI         PTCLDY    73  73 100 SW9       29.78F
PASCAGOULA     CLOUDY    73  71  93 S5        29.79S
GULFPORT       CLOUDY    73  70  90 SW3       29.78F
$$



USA.gov is the U.S. government's official web portal to all federal, state and local government web resources and services.